Location: Montreal
(45.5000°N, 73.5833°W)
Time: 03:08:38
(UTC-04:00)

N. Korean satellite - Pass Details

Date: 15 October 2017
Orbit: 459 x 517 km, 97.2° (Epoch: 19 October)

Event Time Altitude Azimuth Distance (km) Brightness Sun altitude
Rises 19:00:16 0° 172° (S) 2,540 10.2 -9.9°
Reaches altitude 10° 19:02:21 10° 174° (S) 1,655 9.2 -10.2°
Maximum altitude 19:05:53 69° 258° (WSW) 514 6.9 -10.8°
Drops below altitude 10° 19:09:23 10° 343° (NNW) 1,640 9.4 -11.5°
Sets 19:11:27 0° 346° (NNW) 2,515 10.4 -11.8°
